Tracking 21970 objects as of 25-Nov-2020
HD Live streaming from Space Station
objects crossing your sky now

IRIDIUM 33 DEB

Track IRIDIUM 33 DEB now!
10-day predictions


NORAD ID: 35624
Int'l Code: 1997-051QW
Perigee: 635.0 km
Apogee: 686.2 km
Inclination: 86.4 °
Period: 97.8 minutes
Semi major axis: 7031 km
RCS: 0.0072 m2 (small)
Launch date: September 14, 1997
Source: United States (US)
Launch site: TYURATAM MISSILE AND SPACE COMPLEX (TTMTR)

Note: This is SATELLITE DEBRIS
aabbcc
Your satellite tracking list
Your tracking list is empty




NASA's NSSDC Master Catalog

Two Line Element Set (TLE):
1 35624U 97051QW  20329.32159213 +.00009320 +00000-0 +14526-2 0  9998
2 35624 086.3516 079.9006 0036422 263.8830 095.8236 14.72387353612756
Source of the keplerian elements: AFSPC